TimeCDT,TemperatureF,Dew PointF,Humidity,Sea Level PressureIn,VisibilityMPH,Wind Direction,Wind SpeedMPH,Gust SpeedMPH,PrecipitationIn,Events,Conditions,WindDirDegrees,DateUTC
12:53 AM,48.9,46.0,90,30.16,10.0,NE,9.2,-,0.00,,Overcast,50,2012-10-08 05:53:00
1:53 AM,48.9,46.9,93,30.18,10.0,NNE,8.1,-,N/A,,Overcast,30,2012-10-08 06:53:00
2:53 AM,48.0,46.9,96,30.16,10.0,NNE,6.9,-,0.01,Rain,Light Rain,30,2012-10-08 07:53:00
3:53 AM,48.0,46.9,96,30.17,10.0,NNE,10.4,-,0.02,,Overcast,20,2012-10-08 08:53:00
4:53 AM,46.9,46.9,100,30.19,4.0,NNE,5.8,-,0.11,Rain,Heavy Rain,20,2012-10-08 09:53:00
5:04 AM,46.4,46.4,100,30.20,5.0,North,5.8,-,0.07,Rain,Heavy Rain,10,2012-10-08 10:04:00
5:53 AM,46.9,46.9,100,30.20,10.0,NNE,6.9,-,0.11,,Overcast,30,2012-10-08 10:53:00
6:53 AM,48.0,48.0,100,30.21,10.0,NNE,4.6,-,N/A,,Overcast,30,2012-10-08 11:53:00
7:50 AM,48.2,46.4,93,30.22,10.0,NNE,4.6,-,N/A,,Overcast,20,2012-10-08 12:50:00
7:53 AM,48.0,46.2,93,30.22,10.0,NNE,4.6,-,N/A,,Overcast,20,2012-10-08 12:53:00
8:04 AM,48.2,46.4,93,30.23,10.0,North,4.6,-,N/A,,Overcast,10,2012-10-08 13:04:00
8:53 AM,48.9,46.2,90,30.23,10.0,NNE,5.8,-,N/A,,Overcast,20,2012-10-08 13:53:00
9:16 AM,48.2,46.4,93,30.24,10.0,NNE,6.9,-,N/A,,Overcast,30,2012-10-08 14:16:00
9:34 AM,48.2,46.4,93,30.24,10.0,ENE,4.6,-,N/A,,Overcast,60,2012-10-08 14:34:00
9:49 AM,48.2,46.4,93,30.24,10.0,ENE,5.8,-,N/A,,Overcast,60,2012-10-08 14:49:00
9:53 AM,51.1,46.2,83,30.24,10.0,NE,6.9,-,N/A,,Overcast,50,2012-10-08 14:53:00
10:19 AM,51.8,51.8,100,30.24,10.0,East,5.8,-,N/A,,Mostly Cloudy,90,2012-10-08 15:19:00
10:29 AM,53.6,53.6,100,30.24,10.0,NNE,6.9,-,N/A,,Mostly Cloudy,30,2012-10-08 15:29:00
10:36 AM,51.8,51.8,100,30.24,10.0,ENE,5.8,-,N/A,,Scattered Clouds,70,2012-10-08 15:36:00
10:53 AM,54.0,46.9,77,30.24,10.0,NE,6.9,-,N/A,,Partly Cloudy,50,2012-10-08 15:53:00
11:53 AM,57.9,46.0,65,30.22,10.0,Variable,5.8,-,N/A,,Mostly Cloudy,0,2012-10-08 16:53:00
12:01 PM,57.2,46.4,67,30.22,10.0,NNE,8.1,-,N/A,,Mostly Cloudy,20,2012-10-08 17:01:00
12:20 PM,57.2,44.6,63,30.22,10.0,East,6.9,-,N/A,,Overcast,90,2012-10-08 17:20:00
12:53 PM,57.0,44.1,62,30.21,10.0,North,8.1,-,N/A,,Mostly Cloudy,10,2012-10-08 17:53:00
1:53 PM,59.0,43.0,55,30.18,10.0,Calm,Calm,-,N/A,,Mostly Cloudy,0,2012-10-08 18:53:00
2:53 PM,60.1,45.0,57,30.16,10.0,North,5.8,-,N/A,,Mostly Cloudy,360,2012-10-08 19:53:00
3:53 PM,60.1,43.0,53,30.15,10.0,North,5.8,-,N/A,,Partly Cloudy,10,2012-10-08 20:53:00
4:53 PM,59.0,43.0,55,30.14,10.0,NNE,5.8,-,N/A,,Clear,20,2012-10-08 21:53:00
5:53 PM,57.9,44.1,60,30.14,10.0,NNE,5.8,-,N/A,,Overcast,30,2012-10-08 22:53:00
6:53 PM,55.0,46.9,74,30.14,10.0,Calm,Calm,-,N/A,,Mostly Cloudy,0,2012-10-08 23:53:00
7:53 PM,55.9,46.9,72,30.15,10.0,North,3.5,-,N/A,,Overcast,360,2012-10-09 00:53:00
8:53 PM,54.0,46.9,77,30.15,10.0,ENE,3.5,-,N/A,,Overcast,70,2012-10-09 01:53:00
9:53 PM,53.1,48.9,86,30.17,10.0,Calm,Calm,-,N/A,,Overcast,0,2012-10-09 02:53:00
10:53 PM,52.0,48.0,86,30.16,10.0,Calm,Calm,-,N/A,,Overcast,0,2012-10-09 03:53:00
11:53 PM,48.9,46.9,93,30.15,10.0,Calm,Calm,-,N/A,,Mostly Cloudy,0,2012-10-09 04:53:00